Regional Weather Roundup
Issued by NWS Charleston, SC

Current Version | Previous Version | Graphics & Text | Print | Product List | Glossary On
Versions: 1 2 3 4 5 6 7 8 9 10 11 12 13 14 15 16 17 18 19 20 21 22 23 24 25 26 27 28 29 30 31 32 33 34 35 36 37 38 39 40 41 42 43 44 45 46 47 48 49 50
000
ASUS42 KCHS 042012
RWRCHS

REGIONAL WEATHER ROUNDUP
NATIONAL WEATHER SERVICE CHARLESTON SC
300 PM EST SUN DEC 04 2016

NOTE: "FAIR" INDICATES FEW OR NO CLOUDS BELOW 12,000 FEET WITH NO
SIGNIFICANT WEATHER AND/OR OBSTRUCTIONS TO VISIBILITY.

NOT ALL STATIONS ARE QUALITY CONTROLLED. USE DATA WITH CAUTION...
ESPECIALLY DEWPOINT OBSERVATIONS.

SCZ027-030-031-034>040-042>050-042100-
...SOUTHEAST SOUTH CAROLINA...

CITY           SKY/WX    TMP DP  RH WIND       PRES   REMARKS
N CHARLESTON   CLOUDY    60  49  66 E12       30.12F
WATERFRONT PRK   N/A     58  53  83 E10       30.11F
MOUNT PLEASANT NOT AVBL
JOHNS ISLAND   CLOUDY    61  54  77 NE10G18   30.11F
PINOPOLIS        N/A     54  46  76 E9        30.05F
MONCKS CORNER  DRIZZLE   52  45  76 NE6       30.14S
SUMMERVILLE    RAIN      55  46  71 N9        30.13S
BEAUFORT MCAS  CLOUDY    62  53  72 E8G17     30.09F
BEAUFORT ARPT  CLOUDY    61  54  77 E14G23    30.09F
HILTON HEAD IS CLOUDY    63  55  77 NE10      30.09F
WALTERBORO     CLOUDY    59  45  58 E6        30.12F
ALLENDALE      CLOUDY    52  45  76 N6        30.10S

...SOUTHERN MIDLANDS AND PEE DEE...

CITY           SKY/WX    TMP DP  RH WIND       PRES   REMARKS
GEORGETOWN     NOT AVBL
KINGSTREE      LGT RAIN  50  36  57 NE6       30.16F
ORANGEBURG     LGT RAIN  49  43  80 NE7       30.13F
BARNWELL       NOT AVBL
AIKEN          NOT AVBL
MANNING        NOT AVBL
COLUMBIA       CLOUDY    49  40  71 E7        30.15F
SUMTER         CLOUDY    48  39  70 NE9       30.13F
FLORENCE       LGT RAIN  47  41  80 NE9       30.18F
MYRTLE BEACH   CLOUDY    54  36  50 NE12      30.20S
N MYRTLE BEACH LGT RAIN  50  38  63 NE8       30.18S

$$

GAZ063-065-086>088-099>101-113>116-118-119-134>141-150-042100-
...SOUTHEAST GEORGIA...

CITY           SKY/WX    TMP DP  RH WIND       PRES   REMARKS
SAVANNAH ARPT  CLOUDY    63  53  70 E10       30.08F
HUNTER AAF     CLOUDY    63  59  85 E12       30.04F
FORT STEWART   CLOUDY    64  55  72 E3        30.04F
STATESBORO     CLOUDY    62  51  67 E6        30.06F
SYLVANIA       CLOUDY   N/A N/A N/A E6        30.08F
CLAXTON        CLOUDY    65  56  72 E7        30.05F

...CSRA...CENTRAL AND FAR SOUTHEAST GEORGIA...

CITY           SKY/WX    TMP DP  RH WIND       PRES   REMARKS
THOMSON        CLOUDY    47  47 100 CALM      30.16F
AUGUSTA-BUSH   CLOUDY    49  44  83 CALM      30.11F
AUGUSTA-DANIEL CLOUDY    48  41  76 NE7       30.12S
SWAINSBORO     LGT RAIN  55  45  67 E6        30.06F
VIDALIA        CLOUDY    64  55  72 E8        30.05S
EASTMAN        CLOUDY    64  42  44 SE5       30.06F
HAZLEHURST     RAIN      66  59  77 SE5       30.02F
ALMA           CLOUDY    68  59  73 E5        30.02F
WAYCROSS       CLOUDY    75  65  70 E6        30.02S
JESUP          CLOUDY    70  63  78 E9        30.04F
BAXLEY         CLOUDY    68  63  83 E3        30.03S
BRUNSWICK      CLOUDY    70  63  78 E9        30.05F
SAINT SIMONS   CLOUDY    70  61  73 E7        30.04F

$$

SCZ027-028-034-036>038-045-046-048>050-GAZ119-141-042100-
...LAKE AND SUPPLEMENTAL COASTAL OBSERVATIONS...

STATION/POSITION TIME  TEMP    WIND        PRES    WAVE   SWELL
                       AIR SEA DIR/SP/G            HT/PER HT/PER/DIR
                 (UTC) (F)     (DEG/KT/KT) (MB)    (FT/S) (FT/S/D)
WINYAH BAY       NOT AVBL
LAKE MURRAY      1920   46      30/  3/  7 1021.0F
ACE BASIN NERRS  1845   60      40/  4     1020.0
FORT PULASKI     1936   60 61   70/ 16/ 20 1018.5F
SAPELO ISLAND    1900   68     100/  5     1018.0

$$

ANZ835-935-AMZ111-154-330-350-352-354-370-450-454-472-042100-
...C-MAN AND BUOY OBSERVATIONS...

STATION/POSITION TIME  TEMP    WIND        PRES    WAVE   SWELL
                       AIR SEA DIR/SP/G            HT/PER HT/PER/DIR
                 (UTC) (F)     (DEG/KT/KT) (MB)    (FT/S) (FT/S/D)
BUOY 41004       1950   68 75  100/ 12/ 14 1019.2F   3/ 5   2/130/ 8
BUOY 41008       1950   67 65  100/  8/  8 1017.7F   3/ 5   3/110/ 5
FOLLY BEACH CMAN 1900   58      40/ 18/ 20 1020.8F
CAPERS NEARSHORE 1908   59 62   50/ 17/ 23 1019.9F
FRIPP NEARSHORE  1908   60 62   60/ 17/ 21 1019.3F


STATION/POSITION TIME  TEMP    WIND        PRES    WAVE   SWELL
                       AIR SEA DIR/SP/G            HT/PER HT/PER/DIR
                 (UTC) (F)     (DEG/KT/KT) (MB)    (FT/S) (FT/S/D)
5E ST. MARYS GA  2000      66                N/A     4/ 5
FRYING PAN BUOY  1950   62 74   40/ 16/ 19 1021.0S   4/ 9   2/ 80/ 9
BUOY 41025       1950   55 75  360/ 10/ 14 1023.0S   5/ 8   5/ 60/ 8
CAPE LOOKOUT NC  1900   50     350/  8/ 10 1023.1S
BUOY 41002       1950   66 74   60/  4/  6 1021.1R   5/ 9   5/ 30/ 9
BUOY 41010       NOT AVBL
ST AUGUSTINE FL  2000   70 68  130/ 14/ 15 1017.4F


$$




USA.gov is the U.S. government's official web portal to all federal, state and local government web resources and services.